This demonstration page uses our WeatherBlox Daily Observations layout. Learn more.

Left ArrowRight Arrow

39.01783, -85.05884

Hourly Observations for March 7, 2017

Temp ( °F °C ) Dew Point ( °F °C ) Humidity (%) Winds ( mph kmh ) Pressure ( in mb ) Visibility ( mi km ) Precip ( " mm )
12:52 am 00:52 Mostly Cloudy 59 15 48 8.9 67 67 S 17 28 29.95 1014 10 16 0.00 0.00
1:52 am 01:52 Mostly Cloudy 60 15.6 47 8.3 62 62 S 17 28 29.93 1013 10 16 0.00 0.00
2:52 am 02:52 Cloudy 62 16.7 47 8.3 58 58 SSW 13 20 29.95 1014 10 16 0.00 0.00
3:52 am 03:52 Cloudy with Light Rain 62 16.7 47 8.3 58 58 SSW 21 33 29.93 1014 10 16 0.00 0.03
4:52 am 04:52 Cloudy with Light Rain 61 16.1 47 8.3 60 60 S 20 31 29.91 1013 10 16 0.00 0.03
5:52 am 05:52 Cloudy with Rain 57 13.9 52 11.1 83 83 SSW 20 31 29.92 1013 5 8 0.02 0.51
6:52 am 06:52 Cloudy with Light Rain 56 13.3 52 11.1 87 87 S 22 35 29.91 1013 8 13 0.03 0.76
7:12 am 07:12 Cloudy with Light Rain 55 13 52 11 88 88 SSW 17 28 29.94 1014 3 5 0.00 0.00
7:21 am 07:21 Cloudy with Light Rain 56 13.3 52 11.1 87 87 SSW 22 35 29.94 1014 7 11 0.02 0.51
7:49 am 07:49 Cloudy with Rain 55 13 54 12 94 94 SW 20 31 30.00 1016 3 4 0.04 1.02
7:52 am 07:52 Cloudy with Rain 56 13.3 53 11.7 90 90 SW 17 28 30.00 1016 3 4 0.04 1.02
8:01 am 08:01 Cloudy with Rain 56 13.3 53 11.7 90 90 SW 13 20 30.00 1016 3 5 0.06 1.52
8:14 am 08:14 Cloudy with Rain 56 13.3 54 12.2 93 93 SW 13 20 30.03 1017 4 6 0.09 2.29
8:52 am 08:52 Cloudy with Light Rain 55 12.8 54 12.2 96 96 S 10 17 29.99 1016 5 8 0.19 4.83
9:30 am 09:30 Cloudy with Light Rain 55 12.8 54 12.2 96 96 S 10 17 30.00 1016 5 8 0.01 0.25
9:52 am 09:52 Cloudy 56 13.3 54 12.2 93 93 S 12 19 29.99 1016 7 11 0.01 0.25
10:27 am 10:27 Cloudy with Light Rain 56 13.3 55 12.8 97 97 S 16 26 30.00 1016 8 13 0.00 0.03
10:52 am 10:52 Cloudy with Light Rain 56 13.3 54 12.2 93 93 SSW 14 22 29.98 1015 10 16 0.01 0.25
11:34 am 11:34 Cloudy with Light Rain 56 13.3 55 12.8 97 97 SSW 13 20 30.00 1016 7 11 0.02 0.51
11:52 am 11:52 Cloudy with Light Rain 56 13.3 55 12.8 97 97 SSW 14 22 29.98 1015 6 10 0.04 1.02
12:52 pm 12:52 Cloudy with Light Rain 57 13.9 55 12.8 93 93 SSW 13 20 29.95 1014 5 8 0.06 1.52
1:13 pm 13:13 Cloudy 57 13.9 55 12.8 93 93 SSW 13 20 29.94 1014 8 13 0.00 0.03
1:52 pm 13:52 Cloudy 57 13.9 54 12.2 90 90 SSW 15 24 29.93 1014 10 16 0.00 0.03
2:05 pm 14:05 Cloudy with Light Rain 57 13.9 55 12.8 93 93 SSW 10 17 29.94 1014 3 4 0.00 0.03
2:52 pm 14:52 Cloudy with Light Rain 54 12.2 52 11.1 93 93 W 10 17 29.92 1013 2 3 0.09 2.29
3:52 pm 15:52 Cloudy with Light Rain 52 11.1 50 10 93 93 WSW 12 19 29.93 1013 2 3 0.02 0.51
4:39 pm 16:39 Cloudy with Light Rain 49 9.4 47 8.3 93 93 SW 9 15 29.97 1015 3 4 0.04 1.02
4:52 pm 16:52 Cloudy with Light Rain 49 9.4 47 8.3 93 93 SW 9 15 29.95 1014 3 4 0.04 1.02
5:23 pm 17:23 Cloudy 50 10 48 8.9 93 93 SW 6 9 29.97 1015 7 11 0.00 0.03
5:52 pm 17:52 Cloudy 50 10 48 8.9 93 93 W 10 17 29.96 1015 10 16 0.00 0.03
6:52 pm 18:52 Mostly Cloudy 50 10 44 6.7 80 80 W 12 19 29.98 1015 10 16 0.00 0.00
7:52 pm 19:52 Partly Cloudy 47 8.3 43 6.1 86 86 W 7 11 30.03 1017 10 16 0.00 0.00
8:52 pm 20:52 Mostly Clear 47 8.3 37 2.8 69 69 WNW 16 26 30.08 1019 10 16 0.00 0.00
9:52 pm 21:52 Mostly Clear 44 6.7 35 1.7 71 71 W 6 9 30.12 1020 10 16 0.00 0.00
10:52 pm 22:52 Mostly Clear 45 7.2 34 1.1 66 66 WSW 6 9 30.14 1021 10 16 0.00 0.00
11:52 pm 23:52 Clear 42 5.6 33 0.6 71 71 SSW 7 11 30.15 1021 10 16 0.00 0.00

Powered by AerisWeather